Regional Weather Roundup
Issued by NWS

Home | Current Version | Previous Version | Text Only | Print | Product List | Glossary On
Versions: 1 2 3 4 5 6 7 8 9 10 11 12 13 14 15 16 17 18 19 20 21 22 23 24 25 26 27 28 29 30 31 32 33 34 35 36 37 38 39 40 41 42 43 44 45 46 47 48 49 50
000
ASUS45 KABQ 271610
RWRNM
NEW MEXICO REGIONAL WEATHER ROUNDUP
NATIONAL WEATHER SERVICE ALBUQUERQUE NM
1000 AM MDT TUE SEP 27 2016

NOTE: "FAIR" MEANS FEW OR NO CLOUDS BELOW 12,000 FEET AGL WITH NO
       SIGNIFICANT WEATHER OR OBSTRUCTIONS TO VISION.

      THIS PRODUCT IS RELEASED AS TWO VERSIONS.  ONE VERSION NEAR
      THE TOP OF THE HOUR CONTAINING PRELIMINARY DATA FROM ALBUQUERQUE
      AND OTHER STATIONS.  A FINAL VERSION WITH ADDITIONAL DATA IS
      ISSUED ABOUT 10 MINUTES AFTER THE HOUR.

NMZ501-503-504-510>518-271700-
NORTHWEST PLATEAU/NORTHCENTRAL MOUNTAINS

CITY           SKY/WX    TMP DP  RH WIND       PRES   REMARKS
FARMINGTON     FAIR      57  38  48 SE5       30.32S
LOS ALAMOS     FAIR      56  33  42 NE3       30.41S
SANTA FE       FAIR      60  35  39 N16       30.36S
TAOS           FAIR      55  32  41 N7        30.41S
ANGEL FIRE     FAIR      47  35  61 CALM      30.47F

$$
NMZ402-403-502-505>509-271700-
WESTCENTRAL MOUNTAINS/SOUTHWEST MOUNTAINS

CITY           SKY/WX    TMP DP  RH WIND       PRES   REMARKS
GALLUP         CLOUDY    59  32  36 NE5       30.35S
SILVER CITY    CLOUDY    59  43  56 SE8       30.32R

$$
NMZ407-409-411-412-271700-
SOUTHERN DESERTS

CITY           SKY/WX    TMP DP  RH WIND       PRES   REMARKS
DEMING         CLOUDY    59  45  59 SE7       30.30S
LAS CRUCES     CLOUDY    58  53  83 NE5       30.31S
HOLLOMAN AFB   FAIR      60  47  63 NE2       30.29R
ALAMOGORDO     FAIR      59  50  72 NW3         N/A
T OR C         CLOUDY    61  51  70 NE5       30.30S

$$
NMZ519>523-271700-
CENTRAL VALLEYS/CENTRAL HIGHLANDS

CITY           SKY/WX    TMP DP  RH WIND       PRES   REMARKS
ALBUQUERQUE    FAIR      59  35  40 NW5       30.33S
DOUBLE EAGLE   PTSUNNY   55  36  47 N7        30.35S
MORIARTY ARPT  FAIR      59  35  39 N3        30.37S
CLINES CORNERS FAIR      59  33  37 VRB3      30.39S
BELEN          CLOUDY    59  40  48 CALM      30.33S
SOCORRO        FAIR      62  47  58 CALM      30.32S

$$
NMZ524>526-539-540-271700-
SOUTHCENTRAL MOUNTAINS

CITY           SKY/WX    TMP DP  RH WIND       PRES   REMARKS
RUIDOSO        CLOUDY    55  32  41 SE6       30.40R

$$
NMZ527>531-271700-
NORTHEAST HIGHLANDS/NORTHEAST PLAINS

CITY           SKY/WX    TMP DP  RH WIND       PRES   REMARKS
LAS VEGAS      FAIR      63  34  33 VRB3      30.38R
RATON          FAIR      61  37  41 NE6       30.33F
CLAYTON        FAIR      74  34  23 CALM      30.26S

$$
NMZ532>537-271700-
EASTCENTRAL PLAINS

CITY           SKY/WX    TMP DP  RH WIND       PRES   REMARKS
TUCUMCARI      FAIR      68  38  33 W6        30.25S
CANNON AFB     FAIR      67  41  38 VRB7      30.27R
CLOVIS AIRPORT FAIR      66  41  39 W5        30.27S

$$
NMZ028-029-538-271700-
SOUTHEAST PLAINS

CITY           SKY/WX    TMP DP  RH WIND       PRES   REMARKS
ROSWELL        CLOUDY    63  49  60 CALM      30.27S
ARTESIA        PTSUNNY   64  45  48 VRB6      30.27S
CARLSBAD       FAIR      63  44  50 CALM      30.26R
HOBBS          MOSUNNY   63  48  59 W3        30.28S


$$



USA.gov is the U.S. government's official web portal to all federal, state and local government web resources and services.